Voltar ao catálogo

JILIN-1 GAOFEN 03D-47

AtivoCiênciaSSO
NORAD 54692·PAYLOAD·🇨🇳 China
Este nome de satélite ainda não foi confirmado por fontes oficiais.

Lançado Dec 9, 2022 de Yellow Sea Launch Area

Loading…

Próximas Passagens (próximas 24 horas)

TLE

AtualizadoSource: Space-Track

Época: Sep 14, 2026, 15:30 UTC

1 54692U 22167L   26257.64599890  .00008206  00000-0  24136-3 0  9991
2 54692  97.7004  71.0537 0007976 152.3744 207.7924 15.35339316209060

Acompanhe JILIN-1 GAOFEN 03D-47 em tempo real com AllMySat

Download on the App Store